,,,PA_Meas_PMT16A,,PR_Meas_QMR101_102,,RH_Meas_QMH101,,SR_Meas_QMS101,,TA_Meas_QMH101,,GenWind,,GenWind,
date,time,status,PA,status,PR,status,RH,status,SR,status,TA,status,DirAvg,status,SpdAvg,
2011-07-20, 00:00:05,VALID,1009.643,VALID,0.0,VALID,104.0,VALID,0.0,VALID,23.869,VALID,167.0,VALID,0.483,
2011-07-20, 00:01:05,VALID,1009.652,VALID,0.0,VALID,104.0,VALID,0.0,VALID,23.891,VALID,168.0,VALID,0.338,
2011-07-20, 00:02:05,VALID,1009.612,VALID,0.0,VALID,104.0,VALID,0.0,VALID,23.889,VALID,168.0,VALID,0.1,
2011-07-20, 00:03:05,VALID,1009.614,VALID,0.0,VALID,104.0,VALID,0.0,VALID,23.869,VALID,143.0,VALID,0.503,
2011-07-20, 00:04:05,VALID,1009.58,VALID,0.0,VALID,104.0,VALID,0.0,VALID,23.869,VALID,176.0,VALID,0.711,
2011-07-20, 00:05:05,VALID,1009.576,VALID,0.0,VALID,104.0,VALID,0.0,VALID,23.891,VALID,160.0,VALID,0.641,
2011-07-20, 00:06:05,VALID,1009.542,VALID,0.0,VALID,104.0,VALID,0.0,VALID,23.869,VALID,155.0,VALID,0.592,
2011-07-20, 00:07:05,VALID,1009.56,VALID,0.0,VALID,104.0,VALID,0.106,VALID,23.869,VALID,153.0,VALID,0.604,
2011-07-20, 00:08:05,VALID,1009.565,VALID,0.0,VALID,104.0,VALID,0.0,VALID,23.869,VALID,153.0,VALID,0.386,
2011-07-20, 00:09:05,VALID,1009.527,VALID,0.0,VALID,104.0,VALID,0.0,VALID,23.869,VALID,153.0,VALID,0.173,
2011-07-20, 00:10:05,VALID,1009.513,VALID,0.0,VALID,104.0,VALID,0.0,VALID,23.891,VALID,153.0,VALID,0.118,
2011-07-20, 00:11:05,VALID,1009.529,VALID,0.0,VALID,104.0,VALID,0.0,VALID,23.871,VALID,153.0,VALID,0.452,
2011-07-20, 00:12:05,VALID,1009.503,VALID,0.0,VALID,104.0,VALID,0.0,VALID,23.869,VALID,153.0,VALID,0.302,
2011-07-20, 00:13:05,VALID,1009.54,VALID,0.0,VALID,104.0,VALID,0.0,VALID,23.85,VALID,142.0,VALID,0.426,
2011-07-20, 00:14:05,VALID,1009.538,VALID,0.0,VALID,104.0,VALID,0.0,VALID,23.85,VALID,103.0,VALID,0.737,
2011-07-20, 00:15:05,VALID,1009.555,VALID,0.0,VALID,104.0,VALID,0.0,VALID,23.869,VALID,103.0,VALID,0.7,
2011-07-20, 00:16:05,VALID,1009.582,VALID,0.0,VALID,104.0,VALID,0.0,VALID,23.869,VALID,113.0,VALID,0.895,
2011-07-20, 00:17:05,VALID,1009.58,VALID,0.0,VALID,104.0,VALID,0.0,VALID,23.869,VALID,117.0,VALID,0.585,
2011-07-20, 00:18:05,VALID,1009.555,VALID,0.0,VALID,104.0,VALID,0.0,VALID,23.869,VALID,117.0,VALID,0.54,
2011-07-20, 00:19:05,VALID,1009.562,VALID,0.0,VALID,104.0,VALID,0.0,VALID,23.869,VALID,117.0,VALID,0.804,
2011-07-20, 00:20:05,VALID,1009.535,VALID,0.0,VALID,104.0,VALID,0.0,VALID,23.869,VALID,111.0,VALID,1.195,
2011-07-20, 00:21:05,VALID,1009.492,VALID,0.0,VALID,104.0,VALID,0.0,VALID,23.869,VALID,116.0,VALID,0.838,
2011-07-20, 00:22:05,VALID,1009.456,VALID,0.0,VALID,104.0,VALID,0.0,VALID,23.869,VALID,157.0,VALID,1.046,
2011-07-20, 00:23:05,VALID,1009.442,VALID,0.0,VALID,104.0,VALID,0.0,VALID,23.869,VALID,152.0,VALID,0.807,
2011-07-20, 00:24:05,VALID,1009.412,VALID,0.0,VALID,104.0,VALID,0.0,VALID,23.85,VALID,139.0,VALID,1.192,
2011-07-20, 00:25:05,VALID,1009.387,VALID,0.0,VALID,104.0,VALID,0.0,VALID,23.83,VALID,169.0,VALID,1.012,
2011-07-20, 00:26:05,VALID,1009.407,VALID,0.0,VALID,104.0,VALID,0.0,VALID,23.852,VALID,176.0,VALID,0.742,
2011-07-20, 00:27:05,VALID,1009.384,VALID,0.0,VALID,104.0,VALID,0.0,VALID,23.83,VALID,180.0,VALID,0.675,
2011-07-20, 00:28:05,VALID,1009.387,VALID,0.0,VALID,104.0,VALID,0.0,VALID,23.832,VALID,163.0,VALID,0.796,
2011-07-20, 00:29:05,VALID,1009.364,VALID,0.0,VALID,104.0,VALID,0.0,VALID,23.811,VALID,154.0,VALID,0.476,
2011-07-20, 00:30:05,VALID,1009.375,VALID,0.0,VALID,104.0,VALID,0.0,VALID,23.813,VALID,156.0,VALID,0.3,
2011-07-20, 00:31:05,VALID,1009.363,VALID,0.0,VALID,104.0,VALID,0.0,VALID,23.791,VALID,156.0,VALID,0.16,
2011-07-20, 00:32:05,VALID,1009.355,VALID,0.0,VALID,104.0,VALID,0.0,VALID,23.772,VALID,156.0,VALID,0.076,
2011-07-20, 00:33:05,VALID,1009.355,VALID,0.0,VALID,104.0,VALID,0.0,VALID,23.793,VALID,156.0,VALID,0.117,
2011-07-20, 00:34:05,VALID,1009.387,VALID,0.0,VALID,104.0,VALID,0.0,VALID,23.772,VALID,156.0,VALID,0.395,
2011-07-20, 00:35:05,VALID,1009.399,VALID,0.0,VALID,104.0,VALID,0.0,VALID,23.791,VALID,155.0,VALID,0.255,
2011-07-20, 00:36:05,VALID,1009.373,VALID,0.0,VALID,104.0,VALID,0.0,VALID,23.772,VALID,155.0,VALID,0.16,
2011-07-20, 00:37:05,VALID,1009.402,VALID,0.0,VALID,104.0,VALID,0.0,VALID,23.772,VALID,155.0,VALID,0.069,
2011-07-20, 00:38:05,VALID,1009.396,VALID,0.0,VALID,104.0,VALID,0.106,VALID,23.772,VALID,155.0,VALID,0.287,
2011-07-20, 00:39:05,VALID,1009.369,VALID,0.0,VALID,104.0,VALID,0.0,VALID,23.774,VALID,155.0,VALID,0.313,
2011-07-20, 00:40:05,VALID,1009.374,VALID,0.0,VALID,104.0,VALID,0.0,VALID,23.752,VALID,155.0,VALID,0.2,
2011-07-20, 00:41:05,VALID,1009.351,VALID,0.0,VALID,104.0,VALID,0.106,VALID,23.772,VALID,155.0,VALID,0.241,
2011-07-20, 00:42:05,VALID,1009.353,VALID,0.0,VALID,104.0,VALID,0.0,VALID,23.774,VALID,155.0,VALID,0.374,
2011-07-20, 00:43:05,VALID,1009.34,VALID,0.0,VALID,104.0,VALID,0.0,VALID,23.752,VALID,155.0,VALID,0.361,
2011-07-20, 00:44:05,VALID,1009.326,VALID,0.0,VALID,104.0,VALID,0.0,VALID,23.733,VALID,155.0,VALID,0.012,
2011-07-20, 00:45:05,VALID,1009.296,VALID,0.0,VALID,104.0,VALID,0.0,VALID,23.754,VALID,140.0,VALID,0.542,
2011-07-20, 00:46:05,VALID,1009.315,VALID,0.0,VALID,104.0,VALID,0.106,VALID,23.733,VALID,117.0,VALID,0.306,
2011-07-20, 00:47:05,VALID,1009.3,VALID,0.0,VALID,104.0,VALID,0.0,VALID,23.733,VALID,92.0,VALID,0.789,
2011-07-20, 00:48:05,VALID,1009.308,VALID,0.0,VALID,104.0,VALID,0.106,VALID,23.733,VALID,109.0,VALID,1.04,
2011-07-20, 00:49:05,VALID,1009.306,VALID,0.0,VALID,104.0,VALID,0.106,VALID,23.752,VALID,115.0,VALID,1.4,
2011-07-20, 00:50:05,VALID,1009.318,VALID,0.0,VALID,104.0,VALID,0.0,VALID,23.733,VALID,112.0,VALID,1.199,
2011-07-20, 00:51:05,VALID,1009.327,VALID,0.0,VALID,104.0,VALID,0.0,VALID,23.733,VALID,112.0,VALID,1.037,
2011-07-20, 00:52:05,VALID,1009.337,VALID,0.0,VALID,104.0,VALID,0.0,VALID,23.733,VALID,98.0,VALID,0.689,
2011-07-20, 00:53:05,VALID,1009.292,VALID,0.0,VALID,104.0,VALID,0.0,VALID,23.752,VALID,116.0,VALID,1.193,
2011-07-20, 00:54:05,VALID,1009.294,VALID,0.0,VALID,104.0,VALID,0.106,VALID,23.733,VALID,130.0,VALID,1.078,
2011-07-20, 00:55:05,VALID,1009.29,VALID,0.0,VALID,104.0,VALID,0.0,VALID,23.713,VALID,121.0,VALID,0.874,
2011-07-20, 00:56:05,VALID,1009.281,VALID,0.0,VALID,104.0,VALID,0.0,VALID,23.713,VALID,124.0,VALID,0.905,
2011-07-20, 00:57:05,VALID,1009.272,VALID,0.0,VALID,104.0,VALID,0.0,VALID,23.713,VALID,133.0,VALID,0.901,
2011-07-20, 00:58:05,VALID,1009.295,VALID,0.0,VALID,104.0,VALID,0.0,VALID,23.713,VALID,100.0,VALID,0.75,
2011-07-20, 00:59:05,VALID,1009.288,VALID,0.0,VALID,104.0,VALID,0.0,VALID,23.694,VALID,132.0,VALID,0.582,
2011-07-20, 01:00:05,VALID,1009.304,VALID,0.0,VALID,104.0,VALID,0.106,VALID,23.694,VALID,100.0,VALID,0.626,
2011-07-20, 01:01:05,VALID,1009.32,VALID,0.0,VALID,104.0,VALID,0.0,VALID,23.694,VALID,105.0,VALID,0.57,
2011-07-20, 01:02:05,VALID,1009.301,VALID,0.0,VALID,104.0,VALID,0.0,VALID,23.675,VALID,110.0,VALID,0.444,
2011-07-20, 01:03:05,VALID,1009.329,VALID,0.0,VALID,104.0,VALID,0.0,VALID,23.655,VALID,110.0,VALID,0.303,
2011-07-20, 01:04:05,VALID,1009.334,VALID,0.0,VALID,104.0,VALID,0.0,VALID,23.636,VALID,110.0,VALID,0.0,
2011-07-20, 01:05:05,VALID,1009.347,VALID,0.0,VALID,104.0,VALID,0.106,VALID,23.616,VALID,110.0,VALID,0.0,
2011-07-20, 01:06:05,VALID,1009.344,VALID,0.0,VALID,104.0,VALID,0.106,VALID,23.636,VALID,132.0,VALID,0.602,
2011-07-20, 01:07:05,VALID,1009.353,VALID,0.0,VALID,104.0,VALID,0.0,VALID,23.595,VALID,134.0,VALID,0.204,
2011-07-20, 01:08:05,VALID,1009.38,VALID,0.0,VALID,104.0,VALID,0.0,VALID,23.597,VALID,133.0,VALID,0.477,
2011-07-20, 01:09:05,VALID,1009.401,VALID,0.0,VALID,104.0,VALID,0.0,VALID,23.597,VALID,133.0,VALID,0.416,
2011-07-20, 01:10:05,VALID,1009.393,VALID,0.0,VALID,104.0,VALID,0.0,VALID,23.597,VALID,124.0,VALID,0.614,
2011-07-20, 01:11:05,VALID,1009.39,VALID,0.0,VALID,104.0,VALID,0.0,VALID,23.597,VALID,133.0,VALID,0.458,
2011-07-20, 01:12:05,VALID,1009.337,VALID,0.0,VALID,104.0,VALID,0.106,VALID,23.577,VALID,95.0,VALID,0.795,
2011-07-20, 01:13:05,VALID,1009.347,VALID,0.0,VALID,104.0,VALID,0.0,VALID,23.577,VALID,95.0,VALID,0.319,
2011-07-20, 01:14:05,VALID,1009.33,VALID,0.0,VALID,104.0,VALID,0.106,VALID,23.577,VALID,95.0,VALID,0.432,
2011-07-20, 01:15:05,VALID,1009.351,VALID,0.0,VALID,104.0,VALID,0.0,VALID,23.579,VALID,95.0,VALID,0.517,
2011-07-20, 01:16:05,VALID,1009.376,VALID,0.0,VALID,104.0,VALID,0.0,VALID,23.579,VALID,95.0,VALID,0.707,
2011-07-20, 01:17:05,VALID,1009.378,VALID,0.0,VALID,104.0,VALID,0.0,VALID,23.558,VALID,73.0,VALID,0.735,
2011-07-20, 01:18:05,VALID,1009.39,VALID,0.0,VALID,104.0,VALID,0.0,VALID,23.558,VALID,82.0,VALID,0.575,
2011-07-20, 01:19:05,VALID,1009.383,VALID,0.0,VALID,104.0,VALID,0.0,VALID,23.559,VALID,87.0,VALID,0.569,
2011-07-20, 01:20:05,VALID,1009.373,VALID,0.0,VALID,104.0,VALID,0.106,VALID,23.538,VALID,88.0,VALID,0.431,
2011-07-20, 01:21:05,VALID,1009.373,VALID,0.0,VALID,104.0,VALID,0.0,VALID,23.538,VALID,92.0,VALID,0.619,
2011-07-20, 01:22:05,VALID,1009.355,VALID,0.0,VALID,104.0,VALID,0.0,VALID,23.558,VALID,98.0,VALID,0.472,
2011-07-20, 01:23:05,VALID,1009.348,VALID,0.0,VALID,104.0,VALID,0.106,VALID,23.538,VALID,98.0,VALID,0.313,
2011-07-20, 01:24:05,VALID,1009.336,VALID,0.0,VALID,104.0,VALID,0.106,VALID,23.519,VALID,102.0,VALID,0.73,
2011-07-20, 01:25:05,VALID,1009.332,VALID,0.0,VALID,104.0,VALID,0.0,VALID,23.519,VALID,135.0,VALID,1.176,
2011-07-20, 01:26:05,VALID,1009.356,VALID,0.0,VALID,104.0,VALID,0.0,VALID,23.538,VALID,124.0,VALID,0.469,
2011-07-20, 01:27:05,VALID,1009.32,VALID,0.0,VALID,104.0,VALID,0.0,VALID,23.519,VALID,122.0,VALID,0.345,
2011-07-20, 01:28:05,VALID,1009.324,VALID,0.0,VALID,104.0,VALID,0.106,VALID,23.499,VALID,127.0,VALID,0.889,
2011-07-20, 01:29:05,VALID,1009.343,VALID,0.0,VALID,104.0,VALID,0.106,VALID,23.519,VALID,116.0,VALID,0.805,
2011-07-20, 01:30:05,VALID,1009.302,VALID,0.0,VALID,104.0,VALID,0.0,VALID,23.519,VALID,115.0,VALID,0.523,
2011-07-20, 01:31:05,VALID,1009.327,VALID,0.0,VALID,104.0,VALID,0.0,VALID,23.519,VALID,115.0,VALID,0.355,
2011-07-20, 01:32:05,VALID,1009.322,VALID,0.0,VALID,104.0,VALID,0.106,VALID,23.499,VALID,119.0,VALID,0.594,
2011-07-20, 01:33:05,VALID,1009.316,VALID,0.0,VALID,104.0,VALID,0.0,VALID,23.478,VALID,110.0,VALID,0.624,
2011-07-20, 01:34:05,VALID,1009.307,VALID,0.0,VALID,104.0,VALID,0.0,VALID,23.501,VALID,83.0,VALID,0.859,
2011-07-20, 01:35:05,VALID,1009.322,VALID,0.0,VALID,104.0,VALID,0.0,VALID,23.48,VALID,81.0,VALID,1.139,
2011-07-20, 01:36:05,VALID,1009.288,VALID,0.0,VALID,104.0,VALID,0.0,VALID,23.48,VALID,85.0,VALID,0.745,
2011-07-20, 01:37:05,VALID,1009.281,VALID,0.0,VALID,104.0,VALID,0.106,VALID,23.48,VALID,87.0,VALID,0.367,
2011-07-20, 01:38:05,VALID,1009.235,VALID,0.0,VALID,104.0,VALID,0.0,VALID,23.48,VALID,52.0,VALID,0.552,
2011-07-20, 01:39:05,VALID,1009.248,VALID,0.0,VALID,104.0,VALID,0.0,VALID,23.46,VALID,57.0,VALID,0.943,
2011-07-20, 01:40:05,VALID,1009.232,VALID,0.0,VALID,104.0,VALID,0.106,VALID,23.46,VALID,56.0,VALID,0.641,
2011-07-20, 01:41:05,VALID,1009.258,VALID,0.0,VALID,104.0,VALID,0.0,VALID,23.46,VALID,72.0,VALID,0.705,
2011-07-20, 01:42:05,VALID,1009.216,VALID,0.0,VALID,104.0,VALID,0.0,VALID,23.441,VALID,74.0,VALID,0.728,
2011-07-20, 01:43:05,VALID,1009.242,VALID,0.0,VALID,104.0,VALID,0.0,VALID,23.421,VALID,64.0,VALID,0.857,
2011-07-20, 01:44:05,VALID,1009.209,VALID,0.0,VALID,104.0,VALID,0.0,VALID,23.441,VALID,48.0,VALID,0.743,
2011-07-20, 01:45:05,VALID,1009.226,VALID,0.0,VALID,104.0,VALID,0.0,VALID,23.421,VALID,56.0,VALID,0.528,
2011-07-20, 01:46:05,VALID,1009.192,VALID,0.0,VALID,104.0,VALID,0.0,VALID,23.402,VALID,57.0,VALID,0.738,
2011-07-20, 01:47:05,VALID,1009.21,VALID,0.0,VALID,104.0,VALID,0.0,VALID,23.402,VALID,98.0,VALID,0.426,
2011-07-20, 01:48:05,VALID,1009.199,VALID,0.0,VALID,104.0,VALID,0.0,VALID,23.402,VALID,61.0,VALID,0.744,
2011-07-20, 01:49:05,VALID,1009.151,VALID,0.0,VALID,104.0,VALID,0.106,VALID,23.402,VALID,50.0,VALID,0.869,
2011-07-20, 01:50:05,VALID,1009.186,VALID,0.0,VALID,104.0,VALID,0.106,VALID,23.361,VALID,46.0,VALID,0.743,
2011-07-20, 01:51:05,VALID,1009.166,VALID,0.0,VALID,104.0,VALID,0.0,VALID,23.361,VALID,46.0,VALID,0.216,
2011-07-20, 01:52:05,VALID,1009.139,VALID,0.0,VALID,104.0,VALID,0.0,VALID,23.363,VALID,47.0,VALID,0.632,
2011-07-20, 01:53:05,VALID,1009.115,VALID,0.0,VALID,104.0,VALID,0.0,VALID,23.363,VALID,44.0,VALID,0.524,
2011-07-20, 01:54:05,VALID,1009.099,VALID,0.0,VALID,104.0,VALID,0.0,VALID,23.303,VALID,44.0,VALID,0.504,
2011-07-20, 01:55:05,VALID,1009.053,VALID,0.0,VALID,104.0,VALID,0.0,VALID,23.304,VALID,50.0,VALID,0.811,
2011-07-20, 01:56:05,VALID,1009.064,VALID,0.0,VALID,104.0,VALID,0.0,VALID,23.304,VALID,51.0,VALID,0.621,
2011-07-20, 01:57:05,VALID,1009.034,VALID,0.0,VALID,104.0,VALID,0.0,VALID,23.304,VALID,51.0,VALID,0.691,
2011-07-20, 01:58:05,VALID,1009.003,VALID,0.0,VALID,104.0,VALID,0.0,VALID,23.285,VALID,52.0,VALID,0.933,
2011-07-20, 01:59:05,VALID,1009.017,VALID,0.0,VALID,104.0,VALID,0.0,VALID,23.264,VALID,54.0,VALID,0.655,
2011-07-20, 02:00:05,VALID,1008.978,VALID,0.0,VALID,104.0,VALID,0.0,VALID,23.265,VALID,77.0,VALID,0.82,
2011-07-20, 02:01:05,VALID,1008.994,VALID,0.0,VALID,104.0,VALID,0.0,VALID,23.246,VALID,66.0,VALID,0.757,
2011-07-20, 02:02:05,VALID,1008.982,VALID,0.0,VALID,104.0,VALID,0.106,VALID,23.265,VALID,63.0,VALID,0.674,
2011-07-20, 02:03:05,VALID,1008.987,VALID,0.0,VALID,104.0,VALID,0.0,VALID,23.246,VALID,64.0,VALID,0.687,
2011-07-20, 02:04:05,VALID,1008.963,VALID,0.0,VALID,104.0,VALID,0.0,VALID,23.225,VALID,52.0,VALID,0.516,
2011-07-20, 02:05:05,VALID,1008.955,VALID,0.0,VALID,104.0,VALID,0.0,VALID,23.246,VALID,60.0,VALID,0.965,
2011-07-20, 02:06:05,VALID,1008.974,VALID,0.0,VALID,104.0,VALID,0.0,VALID,23.246,VALID,50.0,VALID,0.636,
2011-07-20, 02:07:04,VALID,1008.976,VALID,0.0,VALID,104.0,VALID,0.0,VALID,23.226,VALID,68.0,VALID,0.318,
2011-07-20, 02:08:04,VALID,1008.999,VALID,0.0,VALID,104.0,VALID,0.106,VALID,23.226,VALID,68.0,VALID,0.665,
2011-07-20, 02:09:04,VALID,1009.027,VALID,0.0,VALID,104.0,VALID,0.0,VALID,23.226,VALID,67.0,VALID,0.553,
2011-07-20, 02:10:04,VALID,1009.021,VALID,0.0,VALID,104.0,VALID,0.0,VALID,23.226,VALID,67.0,VALID,0.438,
2011-07-20, 02:11:04,VALID,1009.044,VALID,0.0,VALID,104.0,VALID,0.0,VALID,23.226,VALID,52.0,VALID,0.454,
2011-07-20, 02:12:04,VALID,1009.051,VALID,0.0,VALID,104.0,VALID,0.0,VALID,23.207,VALID,52.0,VALID,0.326,
2011-07-20, 02:13:04,VALID,1009.047,VALID,0.0,VALID,104.0,VALID,0.106,VALID,23.186,VALID,52.0,VALID,0.315,
2011-07-20, 02:14:04,VALID,1009.06,VALID,0.0,VALID,104.0,VALID,0.106,VALID,23.166,VALID,52.0,VALID,0.289,
2011-07-20, 02:15:04,VALID,1009.035,VALID,0.0,VALID,104.0,VALID,0.0,VALID,23.168,VALID,52.0,VALID,0.428,
2011-07-20, 02:16:04,VALID,1009.034,VALID,0.0,VALID,104.0,VALID,0.0,VALID,23.168,VALID,51.0,VALID,0.413,
2011-07-20, 02:17:04,VALID,1008.991,VALID,0.0,VALID,104.0,VALID,0.0,VALID,23.127,VALID,51.0,VALID,0.337,
2011-07-20, 02:18:04,VALID,1009.019,VALID,0.0,VALID,104.0,VALID,0.0,VALID,23.148,VALID,51.0,VALID,0.276,
2011-07-20, 02:19:04,VALID,1009.011,VALID,0.0,VALID,104.0,VALID,0.106,VALID,23.148,VALID,51.0,VALID,0.162,
2011-07-20, 02:20:04,VALID,1009.03,VALID,0.0,VALID,104.0,VALID,0.0,VALID,23.129,VALID,51.0,VALID,0.251,
2011-07-20, 02:21:04,VALID,1009.046,VALID,0.0,VALID,104.0,VALID,0.0,VALID,23.109,VALID,51.0,VALID,0.192,
2011-07-20, 02:22:04,VALID,1009.052,VALID,0.0,VALID,104.0,VALID,0.0,VALID,23.109,VALID,51.0,VALID,0.098,
2011-07-20, 02:23:04,VALID,1009.061,VALID,0.0,VALID,104.0,VALID,0.0,VALID,23.09,VALID,51.0,VALID,0.0,
2011-07-20, 02:24:04,VALID,1009.072,VALID,0.0,VALID,104.0,VALID,0.0,VALID,23.071,VALID,51.0,VALID,0.0,
2011-07-20, 02:25:04,VALID,1009.073,VALID,0.0,VALID,104.0,VALID,0.0,VALID,23.071,VALID,51.0,VALID,0.0,
2011-07-20, 02:26:04,VALID,1009.111,VALID,0.0,VALID,104.0,VALID,0.0,VALID,23.09,VALID,51.0,VALID,0.177,
2011-07-20, 02:27:04,VALID,1009.087,VALID,0.0,VALID,104.0,VALID,0.0,VALID,23.09,VALID,51.0,VALID,0.445,
2011-07-20, 02:28:04,VALID,1009.066,VALID,0.0,VALID,104.0,VALID,0.0,VALID,23.131,VALID,57.0,VALID,0.508,
2011-07-20, 02:29:04,VALID,1009.074,VALID,0.0,VALID,104.0,VALID,0.0,VALID,23.109,VALID,125.0,VALID,0.543,
2011-07-20, 02:30:04,VALID,1009.1,VALID,0.0,VALID,104.0,VALID,0.0,VALID,23.129,VALID,100.0,VALID,0.732,
2011-07-20, 02:31:04,VALID,1009.114,VALID,0.0,VALID,104.0,VALID,0.0,VALID,23.127,VALID,84.0,VALID,1.01,
2011-07-20, 02:32:04,VALID,1009.111,VALID,0.0,VALID,104.0,VALID,0.0,VALID,23.127,VALID,96.0,VALID,0.923,
2011-07-20, 02:33:04,VALID,1009.078,VALID,0.0,VALID,104.0,VALID,0.0,VALID,23.148,VALID,102.0,VALID,1.025,
2011-07-20, 02:34:04,VALID,1009.035,VALID,0.0,VALID,104.0,VALID,0.0,VALID,23.148,VALID,122.0,VALID,1.052,
2011-07-20, 02:35:04,VALID,1009.046,VALID,0.0,VALID,104.0,VALID,0.0,VALID,23.148,VALID,111.0,VALID,0.856,
2011-07-20, 02:36:04,VALID,1009.052,VALID,0.0,VALID,104.0,VALID,0.106,VALID,23.148,VALID,108.0,VALID,0.627,
2011-07-20, 02:37:04,VALID,1009.067,VALID,0.0,VALID,104.0,VALID,0.0,VALID,23.148,VALID,96.0,VALID,0.72,
2011-07-20, 02:38:04,VALID,1009.051,VALID,0.0,VALID,104.0,VALID,0.106,VALID,23.148,VALID,88.0,VALID,0.543,
2011-07-20, 02:39:04,VALID,1009.09,VALID,0.0,VALID,104.0,VALID,0.0,VALID,23.148,VALID,88.0,VALID,0.412,
2011-07-20, 02:40:04,VALID,1009.11,VALID,0.0,VALID,104.0,VALID,0.0,VALID,23.148,VALID,92.0,VALID,0.52,
2011-07-20, 02:41:04,VALID,1009.083,VALID,0.0,VALID,104.0,VALID,0.0,VALID,23.17,VALID,100.0,VALID,0.735,
2011-07-20, 02:42:04,VALID,1009.058,VALID,0.0,VALID,104.0,VALID,0.0,VALID,23.148,VALID,105.0,VALID,0.215,
2011-07-20, 02:43:04,VALID,1009.041,VALID,0.0,VALID,104.0,VALID,0.0,VALID,23.148,VALID,105.0,VALID,0.164,
2011-07-20, 02:44:04,VALID,1009.062,VALID,0.0,VALID,104.0,VALID,0.0,VALID,23.15,VALID,105.0,VALID,0.032,
2011-07-20, 02:45:04,VALID,1009.063,VALID,0.0,VALID,104.0,VALID,0.0,VALID,23.129,VALID,105.0,VALID,0.098,
2011-07-20, 02:46:04,VALID,1009.046,VALID,0.0,VALID,104.0,VALID,0.0,VALID,23.148,VALID,118.0,VALID,0.412,
2011-07-20, 02:47:04,VALID,1009.044,VALID,0.0,VALID,104.0,VALID,0.0,VALID,23.129,VALID,118.0,VALID,0.305,
2011-07-20, 02:48:04,VALID,1009.02,VALID,0.0,VALID,104.0,VALID,0.0,VALID,23.129,VALID,120.0,VALID,0.455,
2011-07-20, 02:49:04,VALID,1009.023,VALID,0.0,VALID,104.0,VALID,0.0,VALID,23.129,VALID,127.0,VALID,0.797,
2011-07-20, 02:50:04,VALID,1009.027,VALID,0.0,VALID,104.0,VALID,0.0,VALID,23.148,VALID,137.0,VALID,1.044,
2011-07-20, 02:51:04,VALID,1009.025,VALID,0.0,VALID,104.0,VALID,0.0,VALID,23.148,VALID,133.0,VALID,0.759,
2011-07-20, 02:52:04,VALID,1009.01,VALID,0.0,VALID,104.0,VALID,0.106,VALID,23.108,VALID,135.0,VALID,0.655,
2011-07-20, 02:53:04,VALID,1009.005,VALID,0.0,VALID,104.0,VALID,0.106,VALID,23.129,VALID,135.0,VALID,0.551,
2011-07-20, 02:54:04,VALID,1008.983,VALID,0.0,VALID,104.0,VALID,0.0,VALID,23.129,VALID,135.0,VALID,0.276,
2011-07-20, 02:55:04,VALID,1008.962,VALID,0.0,VALID,104.0,VALID,0.106,VALID,23.129,VALID,147.0,VALID,0.561,
2011-07-20, 02:56:04,VALID,1008.996,VALID,0.0,VALID,104.0,VALID,0.0,VALID,23.109,VALID,157.0,VALID,0.752,
2011-07-20, 02:57:04,VALID,1008.975,VALID,0.0,VALID,104.0,VALID,0.106,VALID,23.129,VALID,163.0,VALID,0.764,
2011-07-20, 02:58:04,VALID,1008.976,VALID,0.0,VALID,104.0,VALID,0.0,VALID,23.129,VALID,156.0,VALID,0.705,
2011-07-20, 02:59:04,VALID,1008.998,VALID,0.0,VALID,104.0,VALID,0.0,VALID,23.129,VALID,156.0,VALID,0.577,
2011-07-20, 03:00:04,VALID,1009.021,VALID,0.0,VALID,104.0,VALID,0.0,VALID,23.129,VALID,156.0,VALID,0.482,
2011-07-20, 03:01:04,VALID,1009.027,VALID,0.0,VALID,104.0,VALID,0.0,VALID,23.129,VALID,137.0,VALID,0.641,
2011-07-20, 03:02:04,VALID,1009.031,VALID,0.0,VALID,104.0,VALID,0.0,VALID,23.148,VALID,112.0,VALID,0.906,
2011-07-20, 03:03:04,VALID,1009.032,VALID,0.0,VALID,104.0,VALID,0.0,VALID,23.129,VALID,118.0,VALID,0.44,
2011-07-20, 03:04:04,VALID,1009.01,VALID,0.0,VALID,104.0,VALID,0.0,VALID,23.127,VALID,111.0,VALID,0.833,
2011-07-20, 03:05:04,VALID,1009.038,VALID,0.0,VALID,104.0,VALID,0.106,VALID,23.148,VALID,116.0,VALID,0.581,
2011-07-20, 03:06:04,VALID,1009.02,VALID,0.0,VALID,104.0,VALID,0.106,VALID,23.168,VALID,116.0,VALID,0.407,
2011-07-20, 03:07:04,VALID,1009.024,VALID,0.0,VALID,104.0,VALID,0.0,VALID,23.168,VALID,116.0,VALID,0.361,
2011-07-20, 03:08:04,VALID,1009.003,VALID,0.0,VALID,104.0,VALID,0.0,VALID,23.148,VALID,114.0,VALID,0.92,
2011-07-20, 03:09:04,VALID,1009.013,VALID,0.0,VALID,104.0,VALID,0.0,VALID,23.187,VALID,124.0,VALID,0.988,
2011-07-20, 03:10:04,VALID,1009.011,VALID,0.0,VALID,104.0,VALID,0.106,VALID,23.166,VALID,114.0,VALID,0.659,
2011-07-20, 03:11:04,VALID,1009.022,VALID,0.0,VALID,104.0,VALID,0.106,VALID,23.187,VALID,112.0,VALID,0.904,
2011-07-20, 03:12:04,VALID,1009.012,VALID,0.0,VALID,104.0,VALID,0.0,VALID,23.187,VALID,114.0,VALID,0.633,
2011-07-20, 03:13:04,VALID,1009.012,VALID,0.0,VALID,104.0,VALID,0.106,VALID,23.187,VALID,115.0,VALID,0.602,
2011-07-20, 03:14:04,VALID,1009.009,VALID,0.0,VALID,104.0,VALID,0.0,VALID,23.187,VALID,115.0,VALID,0.967,
2011-07-20, 03:15:04,VALID,1009.002,VALID,0.0,VALID,104.0,VALID,0.0,VALID,23.168,VALID,111.0,VALID,0.996,
2011-07-20, 03:16:04,VALID,1009.019,VALID,0.0,VALID,104.0,VALID,0.106,VALID,23.187,VALID,110.0,VALID,0.687,
2011-07-20, 03:17:04,VALID,1009.049,VALID,0.0,VALID,104.0,VALID,0.0,VALID,23.168,VALID,114.0,VALID,1.042,
2011-07-20, 03:18:04,VALID,1009.064,VALID,0.0,VALID,104.0,VALID,0.0,VALID,23.168,VALID,124.0,VALID,1.192,
2011-07-20, 03:19:04,VALID,1009.071,VALID,0.0,VALID,104.0,VALID,0.0,VALID,23.168,VALID,111.0,VALID,0.834,
2011-07-20, 03:20:04,VALID,1009.072,VALID,0.0,VALID,104.0,VALID,0.0,VALID,23.148,VALID,124.0,VALID,0.861,
2011-07-20, 03:21:04,VALID,1009.077,VALID,0.0,VALID,104.0,VALID,0.0,VALID,23.168,VALID,112.0,VALID,1.152,
2011-07-20, 03:22:04,VALID,1009.087,VALID,0.0,VALID,104.0,VALID,0.0,VALID,23.148,VALID,113.0,VALID,0.893,
2011-07-20, 03:23:04,VALID,1009.065,VALID,0.0,VALID,104.0,VALID,0.0,VALID,23.17,VALID,119.0,VALID,0.794,
2011-07-20, 03:24:04,VALID,1009.102,VALID,0.0,VALID,104.0,VALID,0.106,VALID,23.148,VALID,114.0,VALID,1.435,
2011-07-20, 03:25:04,VALID,1009.083,VALID,0.0,VALID,104.0,VALID,0.0,VALID,23.148,VALID,114.0,VALID,1.049,
2011-07-20, 03:26:04,VALID,1009.075,VALID,0.0,VALID,104.0,VALID,0.0,VALID,23.129,VALID,110.0,VALID,1.05,
2011-07-20, 03:27:04,VALID,1009.078,VALID,0.0,VALID,104.0,VALID,0.106,VALID,23.148,VALID,108.0,VALID,0.663,
2011-07-20, 03:28:04,VALID,1009.091,VALID,0.0,VALID,104.0,VALID,0.106,VALID,23.147,VALID,119.0,VALID,1.055,
2011-07-20, 03:29:04,VALID,1009.085,VALID,0.0,VALID,104.0,VALID,0.106,VALID,23.147,VALID,127.0,VALID,0.919,
2011-07-20, 03:30:04,VALID,1009.102,VALID,0.0,VALID,104.0,VALID,0.0,VALID,23.148,VALID,131.0,VALID,0.832,
2011-07-20, 03:31:04,VALID,1009.058,VALID,0.0,VALID,104.0,VALID,0.106,VALID,23.148,VALID,114.0,VALID,1.081,
2011-07-20, 03:32:04,VALID,1009.061,VALID,0.0,VALID,104.0,VALID,0.0,VALID,23.148,VALID,122.0,VALID,1.082,
2011-07-20, 03:33:04,VALID,1009.067,VALID,0.0,VALID,104.0,VALID,0.0,VALID,23.148,VALID,115.0,VALID,1.247,
2011-07-20, 03:34:04,VALID,1009.067,VALID,0.0,VALID,104.0,VALID,0.0,VALID,23.148,VALID,115.0,VALID,0.668,
2011-07-20, 03:35:04,VALID,1009.035,VALID,0.0,VALID,104.0,VALID,0.0,VALID,23.148,VALID,120.0,VALID,0.624,
2011-07-20, 03:36:04,VALID,1009.073,VALID,0.0,VALID,104.0,VALID,0.0,VALID,23.17,VALID,125.0,VALID,1.115,
2011-07-20, 03:37:04,VALID,1009.052,VALID,0.0,VALID,104.0,VALID,0.0,VALID,23.129,VALID,115.0,VALID,0.977,
2011-07-20, 03:38:04,VALID,1009.034,VALID,0.0,VALID,104.0,VALID,0.0,VALID,23.148,VALID,119.0,VALID,0.772,
2011-07-20, 03:39:04,VALID,1009.034,VALID,0.0,VALID,104.0,VALID,0.0,VALID,23.129,VALID,123.0,VALID,1.02,
2011-07-20, 03:40:04,VALID,1009.025,VALID,0.0,VALID,104.0,VALID,0.0,VALID,23.129,VALID,112.0,VALID,0.928,
2011-07-20, 03:41:04,VALID,1009.024,VALID,0.0,VALID,104.0,VALID,0.0,VALID,23.15,VALID,112.0,VALID,0.632,
2011-07-20, 03:42:04,VALID,1009.02,VALID,0.0,VALID,104.0,VALID,0.0,VALID,23.17,VALID,114.0,VALID,1.518,